Location: Danville Conservation Area
(38.8674°N, 91.5143°W)
Time: 00:01:41
(UTC-06:00)

Envisat - Pass Details

Date: 06 December 2021
Orbit: 764 x 766 km, 98.2° (Epoch: 23 January)

Event Time Altitude Azimuth Distance (km) Brightness Sun altitude
Rises 06:39:34 0° 351° (N) 3,240 5.9 -6.2°
Reaches altitude 10° 06:43:15 10° 323° (NW) 2,308 5.0 -5.6°
Maximum altitude 06:45:19 13° 299° (WNW) 2,130 4.6 -5.2°
Drops below altitude 10° 06:47:24 10° 274° (W) 2,301 4.9 -4.8°
Sets 06:51:04 0° 247° (WSW) 3,222 5.8 -4.2°
